Regional Weather Roundup
Issued by NWS Sioux Falls, SD

Home | Current Version | Previous Version | Text Only | Print | Product List | Glossary Off
Versions: 1 2 3 4 5 6 7 8 9 10 11 12 13 14 15 16 17 18 19 20 21 22 23 24 25 26 27 28 29 30 31 32 33 34 35 36 37 38 39 40 41 42 43 44 45 46 47 48 49 50

000
ASUS43 KFSD 022202
RWRFSD

WEATHER ROUNDUP FOR SE SOUTH DAKOTA/SW MINNESOTA/NW IOWA
NATIONAL WEATHER SERVICE SIOUX FALLS SD
500 PM CDT MON MAY 02 2016

NOTE: "FAIR" INDICATES FEW OR NO CLOUDS BELOW 12,000 FEET WITH NO
SIGNIFICANT WEATHER AND OR OBSTRUCTIONS TO VISIBILITY.


SDZ038>040-050-052>070-022300-
SOUTHEAST SOUTH DAKOTA

CITY           SKY/WX    TMP DP  RH WIND       PRES   REMARKS
BROOKINGS      CLOUDY    64  35  34 S9        30.00F
CHAMBERLAIN    NOT AVBL
HURON          CLOUDY    61  38  42 W8        29.98F
MADISON        FAIR      61  32  33 SW8       30.02F
MITCHELL       SUNNY     64  39  39 S8        30.01F
SIOUX FALLS    CLOUDY    62  38  40 VRB3      30.02F
WINNER         LGT RAIN  57  42  57 NW7       30.03R
YANKTON        CLOUDY    61  36  39 SW7       30.03F
$$

MNZ071-072-080-081-089-090-097-098-022300-
SOUTHWEST MINNESOTA

CITY           SKY/WX    TMP DP  RH WIND       PRES   REMARKS
FAIRMONT       PTSUNNY   61  30  31 W5        30.03F
JACKSON        SUNNY     61  32  33 S7        30.04F
LUVERNE        PTSUNNY   63  32  31 SW6       30.03F
MARSHALL       MOSUNNY   65  32  29 S6        30.01F
MONTEVIDEO     SUNNY     68  32  26 W6        30.01F
PIPESTONE      MOSUNNY   61  34  36 SW3       30.02F
REDWOOD FALLS  MOSUNNY   65  30  27 S3        30.00F
TRACY          MOSUNNY   65  35  33 S3        30.01F
WINDOM         SUNNY     63  32  31 CALM      30.02F
WORTHINGTON    CLOUDY    61  38  42 CALM      30.04F
$$

IAZ001>003-012>014-020>022-031-032-NEZ013-014-SDZ071-022300-
NORTHWEST IOWA

CITY           SKY/WX    TMP DP  RH WIND       PRES   REMARKS
DENISON        MOSUNNY   63  37  39 VRB3G12   30.03F
ESTHERVILLE    CLOUDY    61  38  42 CALM      30.03F
SIOUX CITY     SUNNY     65  37  35 CALM      30.04F
SPENCER        SUNNY     62  34  35 SE3       30.04F
STORM LAKE     SUNNY     61  36  39 CALM      30.05F
$$

ABBREVIATIONS USED IN REMARKS
   TC - TEMPERATURE IN CELSIUS
  WCI - WIND CHILL INDEX
   HX - HEAT INDEX
  VSB - VISIBILITY





USA.gov is the U.S. government's official web portal to all federal, state and local government web resources and services.